DateTimeUTC,F1_A11,F1_S11,BsB_S11,BsG_S11,BsR_S11,BbsB_S11,BbsG_S11,BbsR_S11,BaB_A11,BaG_A11,BaR_A11,Tu_S11,T_S11,Uu_S11,U_S11,P_S11,T1_A11
2021-10-17T03:00:00Z,00000200,21000000,,,,,,,0000.42,0000.29,-000.30,16.0,23.2,,00.0,0665.8,30.8
2021-10-17T03:01:00Z,00000200,21000000,,,,,,,0000.29,-000.03,0000.29,16.0,23.2,,00.0,0665.8,30.8
2021-10-17T03:02:00Z,00000200,21000000,,,,,,,-000.13,0000.31,0000.22,16.0,23.2,,00.0,0665.8,30.8
2021-10-17T03:03:00Z,00000200,61000000,,,,,,,0000.07,-000.14,-000.08,16.0,23.2,,00.0,0665.8,30.8
2021-10-17T03:04:00Z,00000200,41000000,0001.20,0001.36,0000.61,-000.12,0000.21,0000.11,0000.08,0000.18,0000.06,16.2,23.0,,00.0,0666.8,30.8
2021-10-17T03:05:00Z,00000200,01000000,0001.87,0001.47,0000.91,0000.43,0000.08,0000.17,0000.01,0000.17,-000.11,16.2,22.9,,00.0,0666.9,30.8
2021-10-17T03:06:00Z,00000200,01000000,0001.87,0001.14,0000.54,0000.31,0000.40,0000.50,0000.74,0000.15,0000.50,16.2,22.9,,00.0,0666.9,30.8
2021-10-17T03:07:00Z,00000200,01000000,0001.06,0001.07,0000.63,0000.30,0000.20,0000.11,0000.12,0000.10,0000.13,16.2,22.9,,00.0,0666.9,30.8
2021-10-17T03:08:00Z,00000200,01000000,0000.70,0001.32,0000.80,0000.34,-000.06,0000.15,0000.60,0000.66,0000.43,16.3,22.9,,00.0,0666.9,30.8
2021-10-17T03:09:00Z,00000200,01000000,0001.60,0001.58,0000.74,0000.05,0000.34,-000.10,0000.06,0000.20,0000.22,16.3,22.9,,00.0,0666.9,30.8
2021-10-17T03:10:00Z,00000200,01000000,0001.18,0001.38,0000.78,-000.07,0000.25,0000.05,0000.60,0000.45,0000.11,16.3,22.9,,00.0,0666.9,30.8
2021-10-17T03:11:00Z,00000200,01000000,0001.76,0000.79,0000.79,0000.29,-000.12,0000.12,0000.18,0000.65,0000.24,16.3,22.9,,00.0,0666.9,30.8
2021-10-17T03:12:00Z,00000200,01000000,0001.64,0001.66,0000.75,-000.03,0000.19,0000.42,0000.86,-000.03,0000.59,16.3,22.9,,00.0,0666.9,30.8
2021-10-17T03:13:00Z,00000200,01000000,0001.03,0001.43,0000.30,0000.18,0000.12,0000.16,0000.16,0000.45,0000.26,16.3,22.9,,00.0,0666.9,30.8
2021-10-17T03:14:00Z,00000200,01000000,0000.79,0001.16,0000.74,0000.41,0000.21,0000.34,0000.14,0000.44,-000.08,16.3,22.9,,00.0,0666.9,30.8
2021-10-17T03:15:00Z,00000200,01000000,0001.08,0001.26,0000.74,0000.32,0000.33,0000.01,0000.50,0000.26,0000.31,16.3,22.9,,00.0,0666.9,30.8
2021-10-17T03:16:00Z,00000200,01000000,0001.79,0001.23,0000.69,0000.46,0000.13,0000.14,0000.32,0000.39,0000.20,16.3,22.9,,00.0,0666.9,30.8
2021-10-17T03:17:00Z,00000200,01000000,0000.80,0001.14,0000.94,0000.91,0000.15,0000.09,0000.22,0000.47,0000.42,16.3,22.9,,00.0,0666.8,30.8
2021-10-17T03:18:00Z,00000200,01000000,0001.25,0001.04,0000.80,0000.30,0000.23,0000.12,0000.34,0000.30,0000.18,16.3,22.9,,00.0,0666.9,30.8
2021-10-17T03:19:00Z,00000200,01000000,0001.74,0001.26,0000.60,0000.23,-000.17,0000.11,0000.60,0000.39,0000.51,16.3,22.9,,00.0,0666.9,30.8
2021-10-17T03:20:00Z,00000200,01000000,0001.18,0000.75,0000.81,-000.06,0000.13,0000.05,0000.06,-000.41,-000.26,16.4,22.9,,00.0,0666.9,30.8
2021-10-17T03:21:00Z,00000200,01000000,0001.97,0001.08,0000.35,0000.24,-000.13,0000.24,0000.20,0000.91,0000.50,16.3,22.9,,00.0,0666.9,30.8
2021-10-17T03:22:00Z,00000200,01000000,0001.75,0001.34,0000.59,-000.24,0000.23,0000.11,0000.76,0000.12,0000.32,16.3,22.9,,00.0,0666.9,30.8
2021-10-17T03:23:00Z,00000200,01000000,0000.80,0000.80,0000.44,0000.23,-000.03,0000.13,0000.31,0000.09,-000.19,16.3,22.9,,00.0,0666.9,30.8
2021-10-17T03:24:00Z,00000200,01000000,0000.86,0001.56,0000.66,0000.29,0000.22,-000.16,0000.06,0000.20,0000.06,16.3,22.9,,00.0,0666.9,30.8
2021-10-17T03:25:00Z,00000200,01000000,0000.92,0001.25,0000.72,0000.46,0000.28,-000.03,0000.35,0000.32,0000.14,16.4,22.9,,00.0,0666.9,30.8
2021-10-17T03:26:00Z,00000200,01000000,0001.59,0001.20,0000.49,0000.11,0000.38,0000.29,0000.29,0000.50,0000.50,16.4,22.9,,00.0,0666.9,30.8
2021-10-17T03:27:00Z,00000200,01000000,0001.20,0001.10,0000.78,0000.11,0000.43,0000.44,0000.53,0000.25,0000.34,16.3,22.9,,00.0,0666.9,30.8
2021-10-17T03:28:00Z,00000200,01000000,0001.32,0001.64,0000.69,0000.29,0000.31,0000.22,0000.18,0000.40,0000.23,16.3,22.9,,00.0,0666.9,30.8
2021-10-17T03:29:00Z,00000200,01000000,0000.95,0001.08,0000.88,0000.13,0000.03,0000.28,0000.32,0000.07,0000.18,16.4,22.9,,00.0,0666.9,30.8
2021-10-17T03:30:00Z,00000200,01000000,0000.66,0001.32,0000.50,0000.51,0000.03,-000.12,0000.32,0000.25,0000.41,16.4,22.9,,00.0,0666.9,30.8
2021-10-17T03:31:00Z,00000200,01000000,0002.34,0001.08,0000.80,0000.70,-000.02,0000.14,0000.27,0000.40,0000.14,16.3,22.9,,00.0,0666.9,30.8
2021-10-17T03:32:00Z,00000200,01000000,0001.36,0001.22,0001.08,0000.72,0000.20,0000.42,0000.60,0000.79,0000.15,16.4,22.9,,00.0,0666.9,30.8
2021-10-17T03:33:00Z,00000200,01000000,0001.67,0001.13,0000.68,0000.39,0000.16,0000.11,0000.32,-000.02,0000.47,16.4,22.9,,00.0,0667.0,30.8
2021-10-17T03:34:00Z,00000200,01000000,0001.69,0001.00,0000.67,-000.40,0000.02,0000.30,0000.24,0000.30,0000.20,16.4,22.9,,00.0,0667.0,30.8
2021-10-17T03:35:00Z,00000200,01000000,0001.24,0001.40,0000.59,-000.35,0000.11,0000.04,0000.32,0000.21,-000.14,16.4,22.9,,00.0,0667.0,30.8
2021-10-17T03:36:00Z,00000200,01000000,0001.55,0001.20,0000.86,0000.05,0000.23,-000.19,0000.22,0000.02,0000.30,16.4,22.9,,00.0,0666.9,30.8
2021-10-17T03:37:00Z,00000200,01000000,0001.66,0000.89,0000.81,-000.32,0000.27,-000.14,0000.16,0000.31,-000.08,16.4,22.9,,00.0,0667.0,30.8
2021-10-17T03:38:00Z,00000200,01000000,0001.29,0001.32,0000.49,0000.70,0000.43,0000.41,0000.57,0000.28,0000.66,16.4,22.9,,00.0,0667.0,30.8
2021-10-17T03:39:00Z,00000200,01000000,0001.73,0001.25,0001.13,-000.25,-000.18,0000.04,0000.11,0000.69,-000.20,16.4,22.9,,00.0,0667.0,30.8
2021-10-17T03:40:00Z,00000200,01000000,0001.61,0001.09,0000.37,0000.34,0000.25,0000.04,0000.04,-000.07,0000.32,16.4,22.9,,00.0,0667.0,30.8
2021-10-17T03:41:00Z,00000200,01000000,0001.51,0001.20,0000.81,0000.51,0000.23,0000.55,0000.27,0000.40,0000.41,16.4,22.9,,00.0,0667.0,30.8
2021-10-17T03:42:00Z,00000200,01000000,0001.57,0000.99,0000.73,-000.01,0000.55,-000.06,0000.68,-000.33,0000.01,16.4,22.9,,00.0,0667.0,30.8
2021-10-17T03:43:00Z,00000200,01000000,0000.56,0001.13,0000.76,0000.03,0000.33,0000.17,-000.20,0000.82,0000.31,16.4,22.9,,00.0,0667.0,30.8
2021-10-17T03:44:00Z,00000200,01000000,0001.29,0001.24,0000.83,-000.33,0000.10,0000.44,0000.94,0000.44,0000.26,16.4,22.9,,00.0,0667.0,30.8
2021-10-17T03:45:00Z,00000200,01000000,0001.71,0001.37,0000.86,0000.88,0000.16,0000.52,0003.51,0003.28,0002.84,16.4,22.9,,00.0,0667.0,30.8
2021-10-17T03:46:00Z,00000200,01000000,0003.29,0002.22,0001.28,0000.25,0000.22,0000.22,0016.13,0015.09,0011.98,16.3,22.9,,00.0,0667.0,30.8
2021-10-17T03:47:00Z,00000200,01000000,0009.43,0007.15,0004.15,0001.87,0002.00,0001.40,0092.13,0084.66,0067.32,16.3,22.9,,00.0,0667.0,30.8
2021-10-17T03:48:00Z,00000200,01000000,0017.26,0012.35,0007.60,0003.73,0002.85,0002.26,0183.42,0170.30,0136.26,16.3,22.9,,00.0,0667.0,30.8
2021-10-17T03:49:00Z,00000200,01000000,0013.95,0010.78,0006.90,0002.82,0002.55,0002.01,0157.92,0146.58,0118.24,16.3,22.9,,00.0,0667.0,30.8
2021-10-17T03:50:00Z,00000200,01000000,0012.04,0008.91,0005.52,0002.42,0001.91,0001.76,0125.92,0117.34,0093.92,16.4,22.9,,00.0,0666.9,30.8
2021-10-17T03:51:00Z,00000200,01000000,0012.40,0009.18,0005.89,0002.00,0002.09,0001.95,0129.62,0120.55,0097.15,16.4,22.9,,00.0,0666.9,30.8
2021-10-17T03:52:00Z,00000200,01000000,0014.34,0010.36,0006.83,0002.92,0002.66,0001.65,0151.15,0140.03,0113.07,16.4,22.9,,00.0,0666.9,30.8
2021-10-17T03:53:00Z,00000200,01000000,0015.70,0011.65,0006.89,0002.76,0002.75,0001.73,0160.99,0149.60,0120.14,16.4,22.9,,00.0,0666.9,30.8
2021-10-17T03:54:00Z,00000200,01000000,0015.23,0010.92,0007.08,0003.77,0002.71,0002.03,0160.43,0149.53,0120.12,16.4,22.9,,00.0,0666.9,30.8
2021-10-17T03:55:00Z,00000200,01000000,0019.12,0013.67,0009.37,0003.42,0003.48,0002.88,0199.72,0185.08,0149.47,16.4,22.9,,00.0,0666.9,30.8
2021-10-17T03:56:00Z,00000200,01000000,0017.46,0012.48,0007.89,0003.63,0003.33,0002.10,0186.71,0174.41,0140.55,16.4,22.9,,00.0,0666.9,30.8
2021-10-17T03:57:00Z,00000200,41000000,,,,,,,0042.97,0040.55,0033.43,16.4,23.0,,00.0,0667.0,30.8
2021-10-17T03:58:00Z,00000200,61000000,,,,,,,0001.96,0001.38,0001.29,16.1,23.1,,00.0,0666.0,30.8
2021-10-17T03:59:00Z,00000200,21000000,,,,,,,0001.07,0001.14,0001.01,16.1,23.2,,00.0,0666.0,30.8
